Tracking 29034 objects as of 25-Jun-2024
HD Live streaming from Space Station
objects crossing your sky now

STARLINK-31378

Track STARLINK-31378 now!
10-day predictions
STARLINK-31378 is classified as:


NORAD ID: 58932
Int'l Code: 2024-027B
Perigee: 488.0 km
Apogee: 489.7 km
Inclination: 53.2 °
Period: 94.2 minutes
Semi major axis: 6859 km
RCS: Unknown
Launch date: February 10, 2024
Source: United States (US)
Launch site: AIR FORCE WESTERN TEST RANGE (AFWTR)
Your satellite tracking list
Your tracking list is empty




NASA's NSSDC Master Catalog

Two Line Element Set (TLE):
1 58932U 24027B   24176.62297288  .00005523  00000-0  21185-3 0  9991
2 58932  53.1613 323.7402 0001285  99.8014 260.3131 15.28031091 21937
Source of the keplerian elements: AFSPC